Regional Weather Roundup
Issued by NWS

Home | Current Version | Previous Version | Graphics & Text | Print | Product List | Glossary On
Versions: 1 2 3 4 5 6 7 8 9 10 11 12 13 14 15 16 17 18 19 20 21 22 23 24 25 26 27 28 29 30 31 32 33 34 35 36 37 38 39 40 41 42 43 44 45 46 47 48 49 50
000
ASUS43 KOAX 202310
RWRNE

WEATHER ROUNDUP FOR NEBRASKA
NATIONAL WEATHER SERVICE OMAHA NE
500 PM CST TUE FEB 20 2018

NOTES: SATELLITE DATA IS BEING USED TO AUGMENT CLOUD COVER ABOVE
       12000 FEET.
       "FAIR" INDICATES FEW OR NO CLOUDS BELOW 12,000 FEET WITH NO
       SIGNIFICANT WEATHER AND/OR OBSTRUCTIONS TO VISIBILITY.


NEZ001>004-019>022-054>056-210000-
NEBRASKA PANHANDLE

CITY           SKY/WX    TMP DP  RH WIND       PRES   REMARKS
SCOTTSBLUFF    FAIR      13  -1  54 NW6       30.11R WCI   4
ALLIANCE       FAIR       8  -1  66 CALM      30.10R
CHADRON        FAIR       6  -5  60 W10       30.17R WCI  -9
GORDON         FAIR       7  -6  55 NW6       30.13R WCI  -3
KIMBALL        FAIR       8   0  68 W8        30.03R WCI  -4
SIDNEY         FAIR      11  -3  53 N9        30.09R WCI  -2
$$

NEZ057>060-069>072-079>082-210000-
SOUTHWEST NEBRASKA

CITY           SKY/WX    TMP DP  RH WIND       PRES   REMARKS
NORTH PLATTE   FAIR      15   1  53 N10       30.21R WCI   2
IMPERIAL       FAIR      15   1  53 N13       30.16R WCI   1
LEXINGTON      FAIR      17   4  58 N10       30.24R WCI   4
MCCOOK         FAIR      17   4  56 N6        30.22R WCI   9
OGALLALA       FAIR      14   1  56 NW9       30.17R WCI   2
$$

NEZ005>010-023>029-035>040-094-210000-
NORTH CENTRAL NEBRASKA

CITY           SKY/WX    TMP DP  RH WIND       PRES   REMARKS
VALENTINE      FAIR       9  -3  58 W8        30.23R WCI  -3
AINSWORTH      FAIR       9   0  68 NW10      30.23R WCI  -5
BROKEN BOW     FAIR      12   0  58 N12       30.23R WCI  -2
O`NEILL        FAIR      10   2  71 NW10      30.28R WCI  -4
ORD            FAIR      13   2  61 N13       30.25R WCI  -2
THEDFORD       FAIR      10   0  63 NW12      30.21R WCI  -5
$$

NEZ041-046>049-061>064-073>077-083>087-210000-
SOUTH CENTRAL NEBRASKA

CITY           SKY/WX    TMP DP  RH WIND       PRES   REMARKS
GRAND ISLAND   FAIR      18   5  57 NW20      30.25R WCI   2
AURORA         FAIR      18   6  61 N18       30.25R WCI   2
HASTINGS       FAIR      18   5  57 N20       30.24R WCI   2
HEBRON         FAIR      23  10  55 N15       30.26R WCI  10
HOLDREGE       FAIR      17   6  60 N10       30.23R WCI   5
YORK           FAIR      18   9  68 N16       30.24R WCI   3
$$

NEZ011>018-030>034-042>045-210000-
NORTHEAST NEBRASKA

CITY           SKY/WX    TMP DP  RH WIND       PRES   REMARKS
NORFOLK        FAIR      13   5  70 NW16G24   30.24R WCI  -3
ALBION         FAIR      14   5  68 NW16G23   30.26R WCI  -2
BLAIR          PTSUNNY   18  12  77 NW15      30.23R WCI   3
COLUMBUS       FAIR      16   9  74 NW16G23   30.27R WCI   1
FREMONT        PTSUNNY   17  10  72 NW16G22   30.27R WCI   2
TEKAMAH        FAIR      17  10  74 NW20      30.27R WCI   1
WAYNE          FAIR      13   6  72 NW16      30.27R WCI  -3
$$

NEZ050>053-065>068-078-088>093-210000-
SOUTHEAST NEBRASKA

CITY           SKY/WX    TMP DP  RH WIND       PRES   REMARKS
LINCOLN        PTSUNNY   20   9  62 N20       30.27R WCI   4
OMAHA EPPLEY   PTSUNNY   19  11  70 NW23G30   30.24R WCI   2
BEATRICE       FAIR      22  13  68 N18       30.25R WCI   8
FALLS CITY     PTSUNNY   21  13  71 N14G23    30.23R WCI   8
NEBRASKA CITY  CLOUDY    19  15  81 N17       30.23R WCI   4
PLATTSMOUTH    CLOUDY    19  13  77 NW14G21   30.24R WCI   5
$$

NEZ044-045-051>053-067-210000-
OMAHA AREA

CITY           SKY/WX    TMP DP  RH WIND       PRES   REMARKS
OMAHA EPPLEY   PTSUNNY   19  11  70 NW23G30   30.24R WCI   2
BLAIR          PTSUNNY   18  12  77 NW15      30.23R WCI   3
FREMONT        PTSUNNY   17  10  72 NW16G22   30.27R WCI   2
MILLARD        FAIR      20  11  68 NW15G21   30.26R WCI   7
OFFUTT AFB     CLOUDY    19  10  68 N14G22    30.24R WCI   5
PLATTSMOUTH    CLOUDY    19  13  77 NW14G21   30.24R WCI   5
WAHOO          FAIR      19  11  71 N21G26    30.25R WCI   3
$$



USA.gov is the U.S. government's official web portal to all federal, state and local government web resources and services.